This is the latest recevied weather packets stored in our database for station/object SR3WXA. If no packets are shown the sender has not sent any weather packets the latest 10 day(s).
| Time | Temp. | Humidity | Pressure | Rain* | Wind** | Luminosity | Snow |
|---|---|---|---|---|---|---|---|
| 1788535792 | 24.44° C | 68% | 1003.6 hPa | 0 mm | - | 105 W/m² | - |
| 1788535567 | 24.44° C | 68% | 1003.9 hPa | 0 mm | - | 121 W/m² | - |
| 1788535490 | 24.44° C | 68% | 1003.9 hPa | 0 mm | - | 121 W/m² | - |
| 1788535272 | 24.44° C | 68% | 1003.9 hPa | 0 mm | - | 148 W/m² | - |
| 1788535220 | 24.44° C | 68% | 1003.9 hPa | 0 mm | - | 148 W/m² | - |
| 1788534968 | 24.44° C | 68% | 1003.9 hPa | 0 mm | - | 98 W/m² | - |
| 1788534890 | 24.44° C | 68% | 1003.9 hPa | 0 mm | - | 98 W/m² | - |
| 1788534643 | 24.44° C | 68% | 1004 hPa | 0 mm | - | 134 W/m² | - |
| 1788534591 | 24.44° C | 68% | 1004 hPa | 0 mm | - | 134 W/m² | - |
| 1788534379 | 24.44° C | 68% | 1004.1 hPa | 0 mm | - | 33 W/m² | - |
| 1788534290 | 24.44° C | 68% | 1004.1 hPa | 0 mm | - | 33 W/m² | - |
| 1788534089 | 24.44° C | 68% | 1003.9 hPa | 0 mm | - | 26 W/m² | - |
| 1788533991 | 24.44° C | 68% | 1003.9 hPa | 0 mm | - | 26 W/m² | - |
| 1788533828 | 24.44° C | 68% | 1004.1 hPa | 0 mm | - | 40 W/m² | - |
| 1788533690 | 24.44° C | 68% | 1004.1 hPa | 0 mm | - | 40 W/m² | - |
| 1788533438 | 24.44° C | 68% | 1004.2 hPa | 0 mm | - | 32 W/m² | - |
| 1788533391 | 24.44° C | 68% | 1004.2 hPa | 0 mm | - | 32 W/m² | - |
| 1788533159 | 24.44° C | 68% | 1004.3 hPa | 0 mm | - | 51 W/m² | - |
| 1788533090 | 24.44° C | 68% | 1004.3 hPa | 0 mm | - | 51 W/m² | - |
| 1788532740 | 24.44° C | 68% | 1004.5 hPa | 0 mm | - | 86 W/m² | - |
| 1788532650 | 24.44° C | 68% | 1004.5 hPa | 0 mm | - | 86 W/m² | - |
| 1788532408 | 24.44° C | 67% | 1004.6 hPa | 0 mm | - | 90 W/m² | - |
| 1788532350 | 24.44° C | 67% | 1004.6 hPa | 0 mm | - | 90 W/m² | - |
| 1788532175 | 24.44° C | 67% | 1004.7 hPa | 0 mm | - | 141 W/m² | - |
| 1788532050 | 24.44° C | 67% | 1004.7 hPa | 0 mm | - | 141 W/m² | - |
* Rain latest hour (hover to see other rain measurements)
** Current wind speed in m/s (hover to see current wind gust speed)